[[{"header":{"parameterUnit":"m.s-1","parameterCategory":1,"la1":30.2991,"la2":30.254,"lo1":-89.0895,"lo2":-89.0444,"dy":0.0017,"dx":0.0017,"nx":28,"ny":28,"refTime":"2026-02-27T03:00:00:Z","depth":0,"parameterNumber":2,"parameterNumberName":"U-component_of_WINDS"},"data":[0,0,0,0,0,0,0,0,0,0,0,0,0,0,0,0,0,0,0,0,0,0,0,0,0,0,0,0,0,0,0,0,0,0,0,0,0,0,0,0,0,0,0,0,0,0,0,0,0,0,0,0,0,0,0,0,0,0,-1.3146,-1.3147,0,-1.3245,-1.3246,-1.3247,-1.3264,-1.3263,-1.3262,-1.3261,-1.3369,-1.3373,-1.3376,0,0,0,0,0,0,0,0,0,0,0,0,0,-1.2977,-1.298,-1.3145,-1.3147,-1.3148,-1.3245,-1.3246,-1.3248,-1.3264,-1.3263,-1.3262,-1.3261,-1.3368,-1.3372,-1.3377,0,0,0,0,0,0,0,0,0,0,0,0,0,-1.3061,-1.2981,-1.3145,-1.3167,-1.317,-1.3245,-1.3246,-1.3248,-1.3264,-1.3263,-1.3261,-1.326,-1.3366,-1.3372,-1.3377,-1.3438,0,0,-1.3394,-1.3397,0,0,0,0,0,0,0,0,-1.3056,-1.3067,-1.3163,-1.3166,-1.317,-1.324,-1.3226,-1.3312,-1.3264,-1.3229,-1.3261,-1.326,-1.3328,-1.3336,-1.3358,-1.3443,-1.3448,-1.3395,-1.3398,-1.34,-1.3402,0,0,0,0,0,0,0,-1.305,-1.3063,-1.3185,-1.3164,-1.3168,-1.3175,-1.3186,-1.3243,-1.3285,-1.3232,-1.3233,-1.3244,-1.3329,-1.3353,-1.3361,-1.3449,-1.3394,-1.3399,-1.3403,-1.3405,-1.3592,-1.3593,0,0,0,0,0,0,-1.3039,-1.3058,-1.3182,-1.3188,-1.3108,-1.3179,-1.3191,-1.3219,-1.3284,-1.3292,-1.3245,-1.3245,-1.3344,-1.3354,-1.3365,-1.3441,-1.34,-1.3406,-1.3409,-1.359,-1.3592,-1.3594,0,0,0,0,0,0,-1.3036,-1.305,-1.3178,-1.3123,-1.314,-1.3183,-1.3215,-1.3222,-1.3245,-1.3294,-1.3302,-1.3261,-1.3343,-1.3357,-1.342,-1.3445,-1.3408,-1.3413,-1.3588,-1.3591,-1.3593,-1.3593,0,0,0,0,0,0,-1.3031,-1.3049,-1.307,-1.3124,-1.3143,-1.3229,-1.3217,-1.3225,-1.3254,-1.3254,-1.3311,-1.3319,-1.3343,-1.3411,-1.3425,-1.3452,-1.3417,-1.3586,-1.3589,-1.3592,-1.3591,-1.3595,-1.3599,0,0,0,0,0,-1.3024,-1.3067,-1.3071,-1.3086,-1.317,-1.323,-1.3242,-1.3266,-1.3256,-1.3279,-1.3311,-1.3318,-1.344,-1.3418,-1.3433,-1.3462,-1.3585,-1.3588,-1.3592,-1.3589,-1.3595,-1.3599,0,0,0,0,0,0,-1.3017,-1.3074,-1.3079,-1.314,-1.318,-1.3233,-1.3262,-1.3271,-1.3316,-1.3314,-1.3345,-1.3358,-1.342,-1.3448,-1.3421,-1.3526,-1.3512,-1.3519,-1.3505,-1.351,-1.3514,-1.3506,-1.3422,0,0,0,0,0,-1.3022,-1.3064,-1.3113,-1.3162,-1.3181,-1.3219,-1.3246,-1.3262,-1.3305,-1.3322,-1.3359,-1.3402,-1.3451,-1.3482,-1.353,-1.3596,-1.361,-1.3624,-1.3628,-1.3631,-1.3636,-1.3675,-1.3683,-1.3606,-1.3606,-1.3606,0,0,-1.3034,-1.307,-1.3095,-1.3161,-1.3194,-1.3239,-1.3233,-1.328,-1.3314,-1.333,-1.3391,-1.342,-1.3471,-1.3536,-1.3567,-1.3561,-1.3661,-1.3636,-1.3637,-1.3642,-1.368,-1.3687,-1.3694,-1.3608,-1.3608,-1.3608,0,0,-1.3077,-1.3108,-1.3153,-1.3186,-1.3235,-1.326,-1.3271,-1.3323,-1.3343,-1.3404,-1.3418,-1.3461,-1.3543,-1.3579,-1.3608,-1.3669,-1.3677,-1.3684,-1.3704,-1.3741,-1.3747,-1.3753,-1.3775,-1.3783,-1.3689,-1.3689,-1.3689,0,-1.3085,-1.3151,-1.3176,-1.3222,-1.3252,-1.3268,-1.3315,-1.3347,-1.341,-1.3431,-1.3424,-1.3529,-1.3565,-1.3639,-1.3654,-1.3677,-1.3692,-1.3676,-1.3744,-1.375,-1.3756,-1.3777,-1.3785,-1.369,-1.369,-1.3689,-1.3689,0,-1.316,-1.3205,-1.3236,-1.3295,-1.3328,-1.3375,-1.3409,-1.3441,-1.3455,-1.3482,-1.3546,-1.3589,-1.3646,-1.3666,-1.368,-1.3743,-1.3738,-1.3737,-1.3724,-1.3763,-1.3784,-1.3792,-1.369,-1.369,-1.369,-1.369,0,0,-1.3199,-1.3272,-1.3283,-1.331,-1.3367,-1.3404,-1.3454,-1.3508,-1.3535,-1.3579,-1.3622,-1.3693,-1.3693,-1.3726,-1.3745,-1.3778,-1.3825,-1.3774,-1.3776,-1.3782,-1.3899,-1.3898,-1.3907,-1.3831,-1.3833,-1.3834,-1.3894,0,-1.3249,-1.3334,-1.3359,-1.3431,-1.3475,-1.3492,-1.3536,-1.3577,-1.3604,-1.3647,-1.3678,-1.3728,-1.3723,-1.3744,-1.3777,-1.3812,-1.3849,-1.3808,-1.3873,-1.3875,-1.3859,-1.3918,-1.3918,-1.3972,-1.3903,-1.3904,-1.3905,0,-1.3318,-1.3362,-1.3438,-1.3491,-1.351,-1.3548,-1.3601,-1.3642,-1.369,-1.3708,-1.3746,-1.3763,-1.3817,-1.3802,-1.3879,-1.3851,-1.388,-1.3901,-1.3904,-1.3911,-1.3892,-1.3926,-1.399,-1.3998,-1.3918,-1.3917,-1.3916,0,-1.3339,-1.3418,-1.3474,-1.3497,-1.356,-1.3587,-1.3615,-1.3661,-1.3693,-1.3741,-1.3762,-1.3816,-1.3846,-1.3888,-1.392,-1.3906,-1.3995,-1.3982,-1.4013,-1.4012,-1.403,-1.4028,-1.4099,-1.4049,-1.4049,-1.4049,-1.4049,0,-1.3392,-1.3438,-1.3484,-1.3519,-1.3572,-1.3602,-1.3655,-1.3685,-1.3727,-1.3769,-1.3789,-1.3829,-1.3869,-1.3915,-1.3941,-1.4002,-1.4015,-1.4033,-1.4039,-1.403,-1.4028,-1.4049,-1.4046,-1.4051,-1.4051,-1.405,-1.405,0,-1.3424,-1.3456,-1.3519,-1.3573,-1.3589,-1.3626,-1.3674,-1.371,-1.3738,-1.3792,-1.3807,-1.3852,-1.3908,-1.3945,-1.4016,-1.4034,-1.41,-1.4106,-1.4083,-1.4086,-1.4115,-1.4111,-1.4201,-1.4215,-1.4156,-1.4156,-1.4157,0,-1.3455,-1.349,-1.3549,-1.3578,-1.3606,-1.3652,-1.3685,-1.3718,-1.3751,-1.381,-1.3839,-1.3896,-1.3943,-1.4032,-1.4073,-1.4128,-1.4135,-1.4163,-1.4144,-1.4135,-1.4136,-1.4133,-1.4137,-1.4166,-1.4166,-1.4166,-1.4167,0,-1.3507,-1.3521,-1.3566,-1.3617,-1.3655,-1.3697,-1.374,-1.3763,-1.3804,-1.3841,-1.3897,-1.3934,-1.4007,-1.4064,-1.4123,-1.4155,-1.4169,-1.4173,-1.4183,-1.4174,-1.4159,-1.4168,-1.4091,-1.417,-1.417,-1.417,-1.4169,-1.4169,-1.3539,-1.3572,-1.3619,-1.3669,-1.3704,-1.3744,-1.3781,-1.3814,-1.3861,-1.3921,-1.3939,-1.3998,-1.4049,-1.413,-1.4163,-1.4212,-1.4209,-1.4223,-1.4227,-1.423,-1.423,-1.4152,-1.4223,-1.4223,-1.4223,-1.4223,-1.4223,0,-1.3592,-1.3623,-1.3669,-1.3727,-1.3767,-1.3775,-1.3824,-1.3857,-1.3908,-1.3954,-1.3999,-1.4066,-1.4121,-1.4168,-1.4226,-1.4256,-1.4264,-1.427,-1.4268,-1.4276,-1.4229,-1.4214,-1.4263,-1.4263,-1.4263,-1.4263,-1.4263,-1.4263,-1.3624,-1.368,-1.3701,-1.3777,-1.3809,-1.3865,-1.3893,-1.3931,-1.3967,-1.4039,-1.4085,-1.4114,-1.4161,-1.4223,-1.4276,-1.4288,-1.4309,-1.4314,-1.4328,-1.4283,-1.4279,-1.4274,-1.4261,-1.4318,-1.4318,-1.437,-1.4371,-1.4371]},{"header":{"parameterUnit":"m.s-1","parameterCategory":1,"la1":30.2991,"la2":30.254,"lo1":-89.0895,"lo2":-89.0444,"dy":0.0017,"dx":0.0017,"nx":28,"ny":28,"refTime":"2026-02-27T03:00:00:Z","depth":0,"parameterNumber":3,"parameterNumberName":"V-component_of_WINDS"},"data":[0,0,0,0,0,0,0,0,0,0,0,0,0,0,0,0,0,0,0,0,0,0,0,0,0,0,0,0,0,0,0,0,0,0,0,0,0,0,0,0,0,0,0,0,0,0,0,0,0,0,0,0,0,0,0,0,0,0,-0.0017,-0.0018,0,-0.0039,-0.0039,-0.0039,-0.0035,-0.0035,-0.0034,-0.0034,-0.0058,-0.0058,-0.0059,0,0,0,0,0,0,0,0,0,0,0,0,0,0.0026,0.0025,-0.0017,-0.0018,-0.0018,-0.0039,-0.0039,-0.0039,-0.0035,-0.0035,-0.0034,-0.0034,-0.0057,-0.0058,-0.006,0,0,0,0,0,0,0,0,0,0,0,0,0,0.0006,0.0025,-0.0017,-0.0018,-0.0019,-0.0038,-0.0039,-0.0039,-0.0035,-0.0035,-0.0034,-0.0033,-0.0057,-0.0058,-0.006,-0.0081,0,0,-0.0064,-0.0065,0,0,0,0,0,0,0,0,0.0007,0.0004,-0.0018,-0.0018,-0.0019,-0.0033,-0.0032,-0.0053,-0.0035,-0.0029,-0.0034,-0.0033,-0.005,-0.0052,-0.0057,-0.0082,-0.0083,-0.0064,-0.0065,-0.0066,-0.0066,0,0,0,0,0,0,0,0.0008,0.0005,-0.0026,-0.0018,-0.0019,-0.0018,-0.002,-0.0036,-0.0043,-0.0029,-0.0029,-0.0032,-0.005,-0.0056,-0.0058,-0.0083,-0.0064,-0.0066,-0.0067,-0.0067,-0.0124,-0.0124,0,0,0,0,0,0,0.001,0.0006,-0.0025,-0.0027,-0.0004,-0.0019,-0.0022,-0.0029,-0.0042,-0.0044,-0.0032,-0.0031,-0.0054,-0.0056,-0.0059,-0.0083,-0.0066,-0.0067,-0.0068,-0.0123,-0.0124,-0.0125,0,0,0,0,0,0,0.0011,0.0007,-0.0024,-0.001,-0.0014,-0.0021,-0.0029,-0.003,-0.0036,-0.0044,-0.0046,-0.0037,-0.0053,-0.0057,-0.0075,-0.0084,-0.0068,-0.0069,-0.0123,-0.0124,-0.0124,-0.0133,0,0,0,0,0,0,0.0012,0.0008,-0.0,-0.001,-0.0015,-0.004,-0.003,-0.0031,-0.0038,-0.0037,-0.0049,-0.0051,-0.0053,-0.0072,-0.0076,-0.0086,-0.0071,-0.0122,-0.0123,-0.0124,-0.0132,-0.0134,-0.0136,0,0,0,0,0,0.0014,-0.0002,-0.0001,-0.0004,-0.0025,-0.004,-0.0043,-0.0045,-0.0039,-0.0047,-0.0052,-0.005,-0.0082,-0.0074,-0.0078,-0.0089,-0.0121,-0.0123,-0.0124,-0.0131,-0.0133,-0.0136,0,0,0,0,0,0,0.0005,-0.0004,-0.0002,-0.0022,-0.003,-0.004,-0.005,-0.0048,-0.0059,-0.0058,-0.006,-0.0063,-0.0081,-0.0087,-0.0078,-0.0109,-0.0101,-0.0103,-0.0105,-0.0107,-0.0109,-0.0108,-0.0072,0,0,0,0,0,0.0002,-0.001,-0.0018,-0.0035,-0.0039,-0.0043,-0.005,-0.0051,-0.006,-0.0064,-0.007,-0.008,-0.0092,-0.01,-0.0111,-0.0132,-0.0134,-0.0141,-0.0143,-0.0145,-0.0147,-0.0157,-0.016,-0.0129,-0.0129,-0.0129,0,0,-0.0007,-0.0014,-0.0021,-0.0036,-0.0043,-0.0055,-0.0047,-0.006,-0.0069,-0.0066,-0.0083,-0.0088,-0.0099,-0.0118,-0.0126,-0.0123,-0.0155,-0.0146,-0.0148,-0.0149,-0.0159,-0.0162,-0.0164,-0.013,-0.013,-0.013,0,0,-0.0029,-0.0036,-0.005,-0.0056,-0.0065,-0.0068,-0.0071,-0.0081,-0.0084,-0.01,-0.0098,-0.0109,-0.013,-0.0137,-0.0144,-0.0166,-0.0165,-0.017,-0.0181,-0.0191,-0.0193,-0.0195,-0.0203,-0.0206,-0.0172,-0.0172,-0.0172,0,-0.0039,-0.0057,-0.0058,-0.007,-0.0077,-0.0074,-0.0088,-0.0094,-0.0107,-0.0112,-0.0107,-0.0132,-0.0139,-0.016,-0.0165,-0.017,-0.0174,-0.0169,-0.0193,-0.0195,-0.0197,-0.0204,-0.0207,-0.0172,-0.0172,-0.0172,-0.0172,0,-0.0068,-0.008,-0.0091,-0.0102,-0.011,-0.0123,-0.0126,-0.0134,-0.0133,-0.0136,-0.0153,-0.0161,-0.0174,-0.0178,-0.0179,-0.0198,-0.0196,-0.0192,-0.0184,-0.02,-0.0207,-0.021,-0.0173,-0.0173,-0.0173,-0.0173,0,0,-0.0098,-0.0108,-0.0112,-0.0116,-0.0126,-0.0135,-0.0148,-0.0159,-0.0166,-0.0174,-0.0185,-0.0202,-0.0198,-0.0205,-0.0206,-0.0215,-0.0232,-0.021,-0.021,-0.0214,-0.0253,-0.0256,-0.0259,-0.023,-0.0231,-0.0231,-0.0252,0,-0.012,-0.0143,-0.0143,-0.0164,-0.0174,-0.0171,-0.0182,-0.0189,-0.0192,-0.0202,-0.0205,-0.0217,-0.0211,-0.0215,-0.0223,-0.0228,-0.024,-0.0226,-0.0241,-0.0241,-0.0238,-0.0263,-0.0267,-0.0286,-0.0255,-0.0255,-0.0256,0,-0.015,-0.0158,-0.018,-0.0186,-0.0191,-0.0201,-0.0211,-0.022,-0.0227,-0.0229,-0.0236,-0.0235,-0.0248,-0.0239,-0.0257,-0.0248,-0.0254,-0.0257,-0.0258,-0.026,-0.025,-0.0265,-0.0292,-0.0295,-0.026,-0.026,-0.0259,0,-0.0169,-0.0185,-0.02,-0.0204,-0.0212,-0.0219,-0.0223,-0.023,-0.0236,-0.0245,-0.0249,-0.0259,-0.0265,-0.0273,-0.0275,-0.0268,-0.0292,-0.0284,-0.0294,-0.0294,-0.03,-0.03,-0.0328,-0.0304,-0.0303,-0.0303,-0.0303,0,-0.0194,-0.0208,-0.0208,-0.0218,-0.0232,-0.0232,-0.0246,-0.0249,-0.0255,-0.0265,-0.0262,-0.0272,-0.0273,-0.0283,-0.0284,-0.0299,-0.0302,-0.0303,-0.0303,-0.0304,-0.0303,-0.0308,-0.0306,-0.0304,-0.0304,-0.0304,-0.0304,0,-0.0218,-0.0219,-0.0235,-0.024,-0.0242,-0.0252,-0.0257,-0.0266,-0.0268,-0.028,-0.0283,-0.0286,-0.0297,-0.0299,-0.0313,-0.0314,-0.0331,-0.033,-0.0328,-0.0328,-0.0338,-0.0337,-0.0371,-0.0375,-0.0347,-0.0348,-0.0348,0,-0.0234,-0.0244,-0.025,-0.0256,-0.026,-0.0269,-0.0275,-0.0275,-0.0281,-0.029,-0.0297,-0.0308,-0.0316,-0.0334,-0.0338,-0.0347,-0.0347,-0.0358,-0.0348,-0.0348,-0.0347,-0.0346,-0.0347,-0.036,-0.036,-0.036,-0.0361,0,-0.0263,-0.0263,-0.0271,-0.0279,-0.0286,-0.0293,-0.0299,-0.0304,-0.0304,-0.0312,-0.0322,-0.0328,-0.0341,-0.0351,-0.0361,-0.0365,-0.0363,-0.0363,-0.0366,-0.0366,-0.0365,-0.0366,-0.0333,-0.0363,-0.0362,-0.0362,-0.0362,-0.0362,-0.0284,-0.0292,-0.0297,-0.0306,-0.031,-0.0316,-0.0324,-0.0326,-0.0334,-0.0344,-0.0343,-0.0355,-0.0361,-0.0373,-0.0378,-0.0387,-0.0384,-0.0388,-0.0389,-0.039,-0.0391,-0.0363,-0.0389,-0.0389,-0.0389,-0.0389,-0.0389,0,-0.0312,-0.0314,-0.0323,-0.0331,-0.0338,-0.0334,-0.034,-0.0346,-0.0356,-0.0361,-0.0369,-0.0381,-0.039,-0.0394,-0.0404,-0.041,-0.0409,-0.0413,-0.0412,-0.0413,-0.0393,-0.039,-0.0413,-0.0413,-0.0413,-0.0413,-0.0413,-0.0413,-0.0328,-0.0341,-0.0341,-0.0356,-0.0358,-0.0369,-0.0373,-0.0378,-0.0382,-0.0394,-0.0402,-0.0404,-0.0409,-0.0418,-0.0427,-0.0428,-0.0431,-0.0435,-0.0436,-0.0417,-0.0415,-0.0412,-0.0409,-0.0436,-0.0436,-0.0455,-0.0455,-0.0455]}]]